EST,Max TemperatureF,Mean TemperatureF,Min TemperatureF,Max Dew PointF,MeanDew PointF,Min DewpointF,Max Humidity, Mean Humidity, Min Humidity, Max Sea Level PressureIn, Mean Sea Level PressureIn, Min Sea Level PressureIn, Max VisibilityMiles, Mean VisibilityMiles, Min VisibilityMiles, Max Wind SpeedMPH, Mean Wind SpeedMPH, Max Gust SpeedMPH,PrecipitationIn, CloudCover, Events, WindDirDegrees
2012-11-1,,,,,,,,,,,,,,,,,,,,,,
2012-11-2,,,,,,,,,,,,,,,,,,,,,,
2012-11-3,,,,,,,,,,,,,,,,,,,,,,
2012-11-4,,,,,,,,,,,,,,,,,,,,,,
2012-11-5,,,,,,,,,,,,,,,,,,,,,,
2012-11-6,45,38,30,24,23,22,75,58,44,30.07,30.06,30.05,10,10,10,6,3,,0.00,0,,86
2012-11-7,39,32,25,25,22,19,84,68,47,30.15,30.08,30.02,10,10,10,8,3,,0.00,0,,41
2012-11-8,45,33,21,29,25,18,93,76,52,30.26,30.21,30.14,10,10,9,12,2,,0.00,1,,303
2012-11-9,52,38,24,35,30,23,96,79,52,30.33,30.28,30.25,10,8,3,10,1,,0.00,1,Rain,237
2012-11-10,63,50,37,41,38,34,100,74,43,30.33,30.26,30.21,10,7,1,8,2,,0.07,5,Rain,160
2012-11-11,70,56,43,37,35,34,73,44,29,30.40,30.30,30.22,10,10,10,9,2,,0.00,0,Rain,170
2012-11-12,70,52,32,54,42,25,94,75,45,30.40,30.16,30.00,10,7,2,17,9,28,0.17,5,Rain,235
2012-11-13,36,32,29,27,24,20,79,68,53,30.62,30.50,30.34,10,10,10,12,6,,0.00,7,,286
2012-11-14,36,32,27,27,24,21,84,72,56,30.66,30.58,30.47,10,10,10,8,2,,0.00,5,,45
2012-11-15,45,34,23,26,24,20,89,70,44,30.46,30.42,30.38,10,10,8,5,1,,0.00,0,,28
2012-11-16,48,37,26,33,28,25,96,76,48,30.58,30.49,30.40,10,9,5,7,1,,0.00,1,,18
2012-11-17,52,38,24,32,27,23,100,80,38,30.70,30.62,30.52,10,6,2,7,0,,0.00,0,,60
2012-11-18,54,40,26,32,28,23,92,67,39,30.63,30.58,30.51,10,10,7,8,2,,0.00,0,,109
2012-11-19,50,39,28,33,31,26,92,73,48,30.51,30.41,30.28,10,9,4,6,1,,0.00,0,,98
2012-11-20,52,42,32,35,33,30,96,74,49,30.27,30.22,30.17,10,10,8,5,1,,0.00,2,,54
2012-11-21,57,42,28,34,27,21,100,70,27,30.32,30.27,30.22,10,7,1,5,0,,0.00,1,,280
2012-11-22,61,44,27,34,30,24,92,63,36,30.32,30.23,30.08,10,10,10,7,2,,0.00,0,,179
2012-11-23,54,42,30,45,30,21,86,64,30,30.05,29.94,29.82,10,10,5,21,10,32,0.01,6,Rain-Snow,233
2012-11-24,31,30,28,27,24,19,93,81,66,30.15,30.06,29.99,10,6,1,17,11,,0.00,7,Snow,257
2012-11-25,37,30,24,23,21,18,88,71,47,30.13,30.03,29.93,10,8,1,14,7,,0.00,6,Snow,219
2012-11-26,41,34,28,28,25,22,85,68,47,30.31,30.22,30.07,10,10,7,8,4,,0.00,1,Snow,246
2012-11-27,34,32,27,30,26,19,100,83,57,30.39,30.30,30.22,10,6,2,8,2,,0.00,7,Snow,336
2012-11-28,38,32,26,22,20,16,78,65,40,30.43,30.38,30.32,10,10,10,13,4,,0.00,3,,238
2012-11-29,45,34,24,25,21,19,85,64,36,30.46,30.40,30.35,10,10,8,9,5,,0.00,0,,198
2012-11-30,50,38,25,29,26,21,84,64,41,30.37,30.32,30.25,10,10,8,6,1,,0.00,2,,181